SL-23 DEB, 43381

Orbit data source: Space-Track

SL-23 DEB, 43381 is space debris originally from a launch on Sun, 27 Apr 2008 UTC launched from the Tyuratam Missile And Space Complex (TTMTR). Debris objects in space refer to the collection of defunct objects orbiting the Earth. Examples of debris include non-operational satellites, rocket bodies, and fragments generated from explosions, collisions, or faulty payload assembly.

Loading next visibility...
Identifier
43381, 2008-020C
Orbit
Active
Country
Flag of CISCIS
Related business
Manufacturer
Lavochkin
Mission
Spacecraft
Bus & Motor
Unknown
Mass
Unknown
Launch date (UTC)
2008-04-27 (18 years ago)
Launch vehicle
Unknown
Launch site
Tyuratam Missile And Space Complex (TTMTR)
Object type
Payload
Rocket body
Debris
Shape & HBR
Unknown shape, 1.1 m
Radar Cross Section
Large (>1 m²)

Expand to show TLE details & history
Last TLE update: 1 week ago

TLE from 1 week ago
0 SL-23 DEB
1 43381U 08020C   26166.23054455 -.00000067  00000-0  00000-0 0  9992
2 43381  59.9499  28.9813 0290477 223.6809 337.2415  1.67825630 76989
Epoch: 2026-06-15T05:31Z
TLE epoch observation values (Epoch: 2026-06-15T05:31:59.049Z)
Latitude
-16.86943°
Longitude
-127.42125°
Altitude
22,738.779 km
Speed
3.749 km/s
True Right ascension
14h 36m 22s
True Declination
-16° 50' 46"
Sunlit
Object was in daylight at epoch
Visualization orbit readout
Latitude
Unknown
Longitude
Unknown
Altitude
Unknown
Speed
Unknown
Apparent Right ascension
Unknown
Apparent Declination
Unknown
Sunlit
N/A
Visualization observer readout
Local Sidereal Time
21:27:25
Azimuth
Unknown
Elevation
Unknown
Doppler factor
Unknown
Orbital elements
Apogee altitude
24,401.449 km
Perigee altitude
22,663.772 km
Semi-major axis
29,910.747 km
Eccentricity
0.02905
Inclination
59.9499°
RAAN
28.9813°
Arg. of periapsis
223.6809°
True anomaly
335.90941°
Mean anomaly
337.2415°
Eccentric anomaly
336.57999°
Mean motion
0.41957 °/min
Orbital period
858.03 mins
BSTAR
0
Loading maneuver chart data...
Computing Atmospheric mass density...
Loading historical data...
Loading historical data...
Loading historical data...
Loading historical data...
Loading historical data...
Loading historical data...
Loading historical data...
Other satellites on launch #20 in the year 2008 (2008-04-27 UTC)

Documentation

Showing up to 5 results
|